Вернуться в каталог

STARLINK-34900

АктивенСвязьVLEO
NORAD 65374·PAYLOAD·🇺🇸 United States

Запущен Aug 28, 2025 с Cape Canaveral Space Force Station

Loading…

Ближайшие Пролёты (ближайшие 24 часа)

TLE

СвежийSource: CelesTrak SupGP

Эпоха: Sep 14, 2026, 21:17 UTC

1 65374C 25190Z   26257.88729167  .00009694  00000+0  28651-3 0  2571
2 65374  53.1603   8.2042 0001145  78.9746 102.6138 15.34374568    11

Отслеживайте STARLINK-34900 в реальном времени с AllMySat

Download on the App Store